Canton, GA

2:00 AM EST on December 13, 2017 (GMT -0500)
Canton

Weather History for KCNI - February, 2014

Change the Weather History Date:

Wednesday, February 5, 2014

  Actual Average (KMGE) Record (KMGE)
Temperature  
Mean Temperature 39 °F -  
Max Temperature 46 °F 51 °F 69 °F (2008)
Min Temperature 30 °F 34 °F 15 °F (2009)
Degree Days  
Heating Degree Days 26    
Moisture  
Dew Point 35 °F    
Average Humidity 81    
Maximum Humidity 93    
Minimum Humidity 61    
Precipitation  
Precipitation 0.00 in - - ()
Sea Level Pressure  
Sea Level Pressure 30.02 in    
Wind  
Wind Speed 7 mph (NW)    
Max Wind Speed 14 mph    
Max Gust Speed 28 mph    
Visibility 7 miles    
Events Rain    
Averages and records for this station are not official NWS values.
T = Trace of Precipitation, MM = Missing Value Source: NWS Daily Summary

Daily Weather History Graph

Daily Weather History Graph

Search for Another Location

Airport or City:

Trip Planner

Search our weather history database for the weather conditions in past years. The results will help you decide how hot, cold, wet, or windy it might be!

Date:

Astronomy

Feb. 05, 2014 Rise Set
Actual Time 7:32 AM EST 6:11 PM EST
Civil Twilight 7:05 AM EST 6:37 PM EST
Nautical Twilight 6:36 AM EST 7:07 PM EST
Astronomical Twilight 6:06 AM EST 7:37 PM EST
Moon 11:04 AM EST (2/5) No Moon Set
Length of Visible Light 11h 31m
Length of Day
10h 39m
Waxing Crescent, 39% of the Moon is Illuminated
Feb 5
Waxing Crescent
Feb 6
First Quarter
Feb 14
Full
Feb 22
Last Quarter
Mar 1
New

Hourly Weather History & Observations

Time (EST) Temp. Windchill Dew Point Humidity Pressure Visibility Wind Dir Wind Speed Gust Speed Precip Events Conditions
12:15 AM 41.0 °F 35.2 °F 37.4 °F 87% 30.00 in 2.5 mi East 9.2 mph 19.6 mph N/A   Overcast
12:35 AM 41.0 °F 35.8 °F 37.4 °F 87% 30.01 in 2.0 mi East 8.1 mph 16.1 mph N/A   Overcast
12:55 AM 41.0 °F 37.1 °F 37.4 °F 87% 29.98 in 1.8 mi East 5.8 mph - N/A Rain Light Rain
1:15 AM 39.2 °F 33.0 °F 37.4 °F 93% 29.98 in 2.5 mi ENE 9.2 mph - N/A Rain Light Rain
1:35 AM 39.2 °F 33.0 °F 37.4 °F 93% 29.94 in 2.0 mi East 9.2 mph - N/A Rain Light Rain
1:55 AM 39.2 °F 31.2 °F 37.4 °F 93% 29.89 in 2.0 mi East 13.8 mph 18.4 mph N/A Rain Light Rain
2:15 AM 41.0 °F 35.2 °F 37.4 °F 87% 29.92 in 2.0 mi ENE 9.2 mph 16.1 mph N/A   Drizzle
2:35 AM 41.0 °F 38.0 °F 39.2 °F 93% 29.93 in 2.5 mi ENE 4.6 mph - N/A Rain Rain
2:55 AM 41.0 °F 37.1 °F 39.2 °F 93% 29.91 in 2.5 mi East 5.8 mph - N/A Rain Heavy Rain
3:15 AM 41.0 °F 37.1 °F 39.2 °F 93% 29.90 in 1.2 mi East 5.8 mph - N/A   Unknown
3:35 AM 41.0 °F 35.8 °F 39.2 °F 93% 29.89 in 4.0 mi East 8.1 mph - N/A Rain Rain
3:55 AM 41.0 °F 36.4 °F 39.2 °F 93% 29.89 in 2.5 mi East 6.9 mph - N/A Rain Light Rain
4:15 AM 41.0 °F 35.2 °F 39.2 °F 93% 29.87 in 4.0 mi East 9.2 mph 17.3 mph N/A Rain Rain
4:35 AM 41.0 °F 37.1 °F 39.2 °F 93% 29.88 in 4.0 mi East 5.8 mph - N/A Rain Light Rain
4:55 AM 42.8 °F 40.1 °F 39.2 °F 87% 29.91 in 10.0 mi East 4.6 mph - N/A Rain Light Rain
5:15 AM 41.0 °F 38.0 °F 39.2 °F 93% 29.90 in 10.0 mi East 4.6 mph - N/A Rain Light Rain
5:35 AM 42.8 °F 40.1 °F 39.2 °F 87% 29.91 in 10.0 mi East 4.6 mph - N/A   Overcast
5:55 AM 42.8 °F 40.1 °F 39.2 °F 87% 29.90 in 10.0 mi ENE 4.6 mph - N/A   Overcast
6:15 AM 42.8 °F 41.1 °F 39.2 °F 87% 29.91 in 2.5 mi East 3.5 mph - N/A Rain Light Rain
6:35 AM 42.8 °F - 41.0 °F 93% 29.92 in 2.5 mi Calm Calm - N/A   Overcast
6:55 AM 42.8 °F - 41.0 °F 93% 29.92 in 2.5 mi Calm Calm - N/A   Overcast
7:15 AM 42.8 °F - 41.0 °F 93% 29.93 in 2.5 mi Calm Calm - N/A   Overcast
7:35 AM 42.8 °F - 41.0 °F 93% 29.94 in 1.5 mi Calm Calm - N/A   Overcast
7:55 AM 42.8 °F - 41.0 °F 93% 29.95 in 1.2 mi Calm Calm - N/A   Overcast
8:15 AM 42.8 °F - 41.0 °F 93% 29.97 in 1.5 mi Calm Calm - N/A   Overcast
8:35 AM 42.8 °F - 41.0 °F 93% 29.98 in 0.8 mi Calm Calm - N/A   Overcast
8:55 AM 42.8 °F 41.1 °F 41.0 °F 93% 29.99 in 2.0 mi West 3.5 mph - N/A   Overcast
9:15 AM 44.6 °F 42.2 °F 42.8 °F 93% 29.99 in 1.8 mi WNW 4.6 mph - N/A   Overcast
9:35 AM 44.6 °F 40.7 °F 42.8 °F 93% 30.00 in 5.0 mi WNW 6.9 mph - N/A   Overcast
9:55 AM 44.6 °F 38.8 °F 42.8 °F 93% 30.01 in 7.0 mi WNW 11.5 mph 19.6 mph N/A   Overcast
10:15 AM 44.6 °F 39.7 °F 42.8 °F 93% 30.01 in 10.0 mi West 9.2 mph 16.1 mph N/A   Mostly Cloudy
10:35 AM 44.6 °F 38.8 °F 42.8 °F 93% 30.02 in 10.0 mi West 11.5 mph 18.4 mph N/A   Mostly Cloudy
10:55 AM 44.6 °F 39.7 °F 42.8 °F 93% 30.03 in 10.0 mi West 9.2 mph - N/A   Mostly Cloudy
11:15 AM 44.6 °F 39.2 °F 41.0 °F 87% 30.04 in 10.0 mi WNW 10.4 mph 19.6 mph N/A   Overcast
11:35 AM 46.4 °F 42.4 °F 41.0 °F 81% 30.04 in 10.0 mi West 8.1 mph 18.4 mph N/A   Overcast
11:55 AM 46.4 °F 41.5 °F 37.4 °F 71% 30.04 in 10.0 mi WNW 10.4 mph - N/A   Overcast
12:15 PM 46.4 °F 42.4 °F 37.4 °F 71% 30.04 in 10.0 mi West 8.1 mph 19.6 mph N/A   Overcast
12:35 PM 44.6 °F 41.4 °F 37.4 °F 76% 30.04 in 10.0 mi WNW 5.8 mph - N/A   Overcast
12:55 PM 44.6 °F 41.4 °F 35.6 °F 71% 30.03 in 10.0 mi WNW 5.8 mph 18.4 mph N/A   Overcast
1:15 PM 44.6 °F 38.8 °F 35.6 °F 71% 30.04 in 10.0 mi WNW 11.5 mph 19.6 mph N/A   Overcast
1:35 PM 42.8 °F 37.0 °F 33.8 °F 70% 30.03 in 10.0 mi WNW 10.4 mph 21.9 mph N/A   Overcast
1:55 PM 42.8 °F 38.0 °F 33.8 °F 70% 30.03 in 10.0 mi WNW 8.1 mph - N/A   Overcast
2:15 PM 42.8 °F 37.5 °F 33.8 °F 70% 30.03 in 10.0 mi WNW 9.2 mph 17.3 mph N/A   Overcast
2:35 PM 42.8 °F 38.6 °F 32.0 °F 66% 30.04 in 10.0 mi WNW 6.9 mph - N/A   Overcast
2:55 PM 42.8 °F 37.5 °F 32.0 °F 66% 30.05 in 10.0 mi WNW 9.2 mph 21.9 mph N/A   Overcast
3:15 PM 42.8 °F 38.0 °F 32.0 °F 66% 30.05 in 10.0 mi NW 8.1 mph - N/A   Overcast
3:35 PM 42.8 °F 39.3 °F 32.0 °F 66% 30.06 in 10.0 mi NW 5.8 mph 17.3 mph N/A   Overcast
3:55 PM 42.8 °F 37.0 °F 30.2 °F 61% 30.07 in 10.0 mi NW 10.4 mph 20.7 mph N/A   Overcast
4:15 PM 41.0 °F 35.2 °F 30.2 °F 65% 30.08 in 10.0 mi WNW 9.2 mph 21.9 mph N/A   Overcast
4:35 PM 41.0 °F 35.2 °F 30.2 °F 65% 30.09 in 10.0 mi WNW 9.2 mph 27.6 mph N/A   Overcast
4:55 PM 39.2 °F 33.6 °F 28.4 °F 65% 30.11 in 10.0 mi WNW 8.1 mph 20.7 mph N/A   Overcast
5:15 PM 37.4 °F 28.9 °F 30.2 °F 75% 30.11 in 10.0 mi NW 13.8 mph 23.0 mph N/A   Overcast
5:35 PM 37.4 °F 31.4 °F 28.4 °F 70% 30.12 in 10.0 mi NW 8.1 mph 17.3 mph N/A   Overcast
5:55 PM 35.6 °F 29.2 °F 28.4 °F 75% 30.13 in 10.0 mi NW 8.1 mph 17.3 mph N/A   Overcast
6:15 PM 35.6 °F 29.2 °F 26.6 °F 70% 30.12 in 10.0 mi WNW 8.1 mph - N/A   Overcast
6:35 PM 35.6 °F 29.2 °F 26.6 °F 70% 30.14 in 10.0 mi NW 8.1 mph - N/A   Overcast
7:15 PM 35.6 °F 29.9 °F 24.8 °F 65% 30.14 in 10.0 mi NW 6.9 mph 17.3 mph N/A   Overcast
7:35 PM 35.6 °F 29.9 °F 24.8 °F 65% 30.15 in 10.0 mi WNW 6.9 mph 18.4 mph N/A   Overcast
7:55 PM 35.6 °F 29.2 °F 26.6 °F 70% 30.16 in 10.0 mi NW 8.1 mph 16.1 mph N/A   Overcast
8:35 PM 33.8 °F 27.7 °F 24.8 °F 70% 30.17 in 10.0 mi WNW 6.9 mph 17.3 mph N/A   Overcast
8:55 PM 33.8 °F 27.0 °F 24.8 °F 70% 30.16 in 10.0 mi NW 8.1 mph 18.4 mph N/A   Overcast
9:15 PM 33.8 °F 25.8 °F 23.0 °F 65% 30.17 in 10.0 mi WNW 10.4 mph 26.5 mph N/A   Overcast
10:35 PM 32.0 °F 22.5 °F 23.0 °F 69% 30.20 in 10.0 mi WNW 12.7 mph 21.9 mph N/A   Overcast
11:15 PM 32.0 °F 23.6 °F 23.0 °F 69% 30.21 in 10.0 mi NW 10.4 mph 18.4 mph N/A   Mostly Cloudy
11:35 PM 32.0 °F 23.6 °F 21.2 °F 64% 30.21 in 10.0 mi NW 10.4 mph 19.6 mph N/A   Overcast
11:55 PM 30.2 °F 22.6 °F 21.2 °F 69% 30.20 in 10.0 mi NW 8.1 mph 19.6 mph N/A   Overcast